Time,TemperatureF,DewpointF,PressureIn,WindDirection,WindDirectionDegrees,WindSpeedMPH,WindSpeedGustMPH,Humidity,HourlyPrecipIn,Conditions,Clouds,dailyrainin,SoftwareType,DateUTC
2013-05-02 00:00:00,45.0,45.0,30.47,NE,45,0.0,0.0,100,0.00,,,0.00,Rainwise IP-100,2013-05-02 04:00:00,
2013-05-02 00:01:00,45.0,45.0,30.47,NE,45,0.0,0.0,100,0.00,,,0.00,Rainwise IP-100,2013-05-02 04:01:00,
2013-05-02 00:06:00,45.0,45.0,30.47,NE,45,0.0,0.0,100,0.00,,,0.00,Rainwise IP-100,2013-05-02 04:06:00,
2013-05-02 00:11:00,45.0,45.0,30.47,NE,45,0.0,1.0,100,0.00,,,0.00,Rainwise IP-100,2013-05-02 04:11:00,
2013-05-02 00:16:00,45.0,45.0,30.46,NE,45,1.0,1.0,100,0.00,,,0.00,Rainwise IP-100,2013-05-02 04:16:00,
2013-05-02 00:21:00,45.0,45.0,30.46,NE,45,1.0,1.0,100,0.00,,,0.00,Rainwise IP-100,2013-05-02 04:21:00,
2013-05-02 00:26:00,45.0,45.0,30.46,NE,45,0.0,1.0,100,0.00,,,0.00,Rainwise IP-100,2013-05-02 04:26:00,
2013-05-02 00:31:00,44.0,44.0,30.46,NE,45,0.0,0.0,100,0.00,,,0.00,Rainwise IP-100,2013-05-02 04:31:00,
2013-05-02 00:36:00,45.0,45.0,30.45,NE,45,2.0,2.0,100,0.00,,,0.00,Rainwise IP-100,2013-05-02 04:36:00,
2013-05-02 00:41:00,44.0,44.0,30.45,NE,45,1.0,3.0,100,0.00,,,0.00,Rainwise IP-100,2013-05-02 04:41:00,
2013-05-02 00:46:00,44.0,44.0,30.45,NE,45,0.0,2.0,100,0.00,,,0.00,Rainwise IP-100,2013-05-02 04:46:00,
2013-05-02 00:51:00,44.0,44.0,30.45,NE,45,1.0,2.0,100,0.00,,,0.00,Rainwise IP-100,2013-05-02 04:51:00,
2013-05-02 00:56:00,44.0,44.0,30.46,NE,45,1.0,2.0,100,0.00,,,0.00,Rainwise IP-100,2013-05-02 04:56:00,
2013-05-02 01:01:00,44.0,44.0,30.46,NE,45,0.0,3.0,100,0.00,,,0.00,Rainwise IP-100,2013-05-02 05:01:00,
2013-05-02 01:06:00,44.0,44.0,30.45,NE,45,0.0,2.0,100,0.00,,,0.00,Rainwise IP-100,2013-05-02 05:06:00,
2013-05-02 01:11:00,44.0,44.0,30.45,NE,45,1.0,2.0,100,0.00,,,0.00,Rainwise IP-100,2013-05-02 05:11:00,
2013-05-02 01:16:00,44.0,44.0,30.45,North,360,3.0,4.0,100,0.00,,,0.00,Rainwise IP-100,2013-05-02 05:16:00,
2013-05-02 01:21:00,44.0,44.0,30.45,North,360,2.0,3.0,100,0.00,,,0.00,Rainwise IP-100,2013-05-02 05:21:00,
2013-05-02 01:26:00,44.0,44.0,30.45,North,360,0.0,2.0,100,0.00,,,0.00,Rainwise IP-100,2013-05-02 05:26:00,
2013-05-02 01:31:00,44.0,44.0,30.45,North,360,0.0,2.0,100,0.00,,,0.00,Rainwise IP-100,2013-05-02 05:31:00,
2013-05-02 01:36:00,44.0,44.0,30.45,North,360,1.0,3.0,100,0.00,,,0.00,Rainwise IP-100,2013-05-02 05:36:00,
2013-05-02 01:41:00,44.0,44.0,30.45,North,360,1.0,3.0,100,0.00,,,0.00,Rainwise IP-100,2013-05-02 05:41:00,
2013-05-02 01:46:00,44.0,44.0,30.44,North,360,0.0,3.0,100,0.00,,,0.00,Rainwise IP-100,2013-05-02 05:46:00,
2013-05-02 01:51:00,44.0,44.0,30.44,North,360,2.0,3.0,100,0.00,,,0.00,Rainwise IP-100,2013-05-02 05:51:00,
2013-05-02 01:56:00,45.0,45.0,30.43,North,360,2.0,4.0,100,0.00,,,0.00,Rainwise IP-100,2013-05-02 05:56:00,
2013-05-02 02:01:00,45.0,45.0,30.43,North,360,4.0,5.0,100,0.00,,,0.00,Rainwise IP-100,2013-05-02 06:01:00,
2013-05-02 02:06:00,45.0,45.0,30.43,North,360,6.0,6.0,100,0.00,,,0.00,Rainwise IP-100,2013-05-02 06:06:00,
2013-05-02 02:11:00,45.0,45.0,30.43,North,360,2.0,6.0,100,0.00,,,0.00,Rainwise IP-100,2013-05-02 06:11:00,
2013-05-02 02:16:00,45.0,45.0,30.42,North,360,2.0,3.0,100,0.00,,,0.00,Rainwise IP-100,2013-05-02 06:16:00,
2013-05-02 02:21:00,44.0,44.0,30.42,NNW,337,3.0,5.0,100,0.00,,,0.00,Rainwise IP-100,2013-05-02 06:21:00,
2013-05-02 02:26:00,45.0,45.0,30.41,NNW,337,4.0,6.0,100,0.00,,,0.00,Rainwise IP-100,2013-05-02 06:26:00,
2013-05-02 02:31:00,45.0,45.0,30.41,North,360,2.0,5.0,100,0.00,,,0.00,Rainwise IP-100,2013-05-02 06:31:00,
2013-05-02 02:36:00,44.0,44.0,30.41,North,360,1.0,4.0,100,0.00,,,0.00,Rainwise IP-100,2013-05-02 06:36:00,
2013-05-02 02:41:00,44.0,44.0,30.41,North,360,0.0,2.0,100,0.00,,,0.00,Rainwise IP-100,2013-05-02 06:41:00,
2013-05-02 02:46:00,44.0,44.0,30.41,North,360,0.0,1.0,100,0.00,,,0.00,Rainwise IP-100,2013-05-02 06:46:00,
2013-05-02 02:51:00,43.0,43.0,30.41,East,90,0.0,4.0,100,0.00,,,0.00,Rainwise IP-100,2013-05-02 06:51:00,
2013-05-02 02:56:00,43.0,43.0,30.41,East,90,0.0,0.0,100,0.00,,,0.00,Rainwise IP-100,2013-05-02 06:56:00,
2013-05-02 03:01:00,42.0,42.0,30.41,East,90,0.0,0.0,100,0.00,,,0.00,Rainwise IP-100,2013-05-02 07:01:00,
2013-05-02 03:06:00,42.0,42.0,30.42,East,90,0.0,0.0,100,0.00,,,0.00,Rainwise IP-100,2013-05-02 07:06:00,
2013-05-02 03:11:00,41.0,41.0,30.42,East,90,1.0,2.0,100,0.00,,,0.00,Rainwise IP-100,2013-05-02 07:11:00,
2013-05-02 03:16:00,42.0,42.0,30.42,North,360,2.0,3.0,100,0.00,,,0.00,Rainwise IP-100,2013-05-02 07:16:00,
2013-05-02 03:21:00,42.0,42.0,30.42,NNE,22,0.0,5.0,100,0.00,,,0.00,Rainwise IP-100,2013-05-02 07:21:00,
2013-05-02 03:26:00,43.0,43.0,30.41,North,360,2.0,7.0,100,0.00,,,0.00,Rainwise IP-100,2013-05-02 07:26:00,
2013-05-02 03:31:00,43.0,43.0,30.41,NNW,337,3.0,4.0,100,0.00,,,0.00,Rainwise IP-100,2013-05-02 07:31:00,
2013-05-02 03:36:00,42.0,42.0,30.42,North,360,3.0,6.0,100,0.00,,,0.00,Rainwise IP-100,2013-05-02 07:36:00,
2013-05-02 03:41:00,43.0,43.0,30.42,North,360,2.0,6.0,100,0.00,,,0.00,Rainwise IP-100,2013-05-02 07:41:00,
2013-05-02 03:46:00,43.0,43.0,30.42,North,360,4.0,6.0,100,0.00,,,0.00,Rainwise IP-100,2013-05-02 07:46:00,
2013-05-02 03:51:00,43.0,43.0,30.42,North,360,3.0,6.0,100,0.00,,,0.00,Rainwise IP-100,2013-05-02 07:51:00,
2013-05-02 03:56:00,43.0,43.0,30.41,NNW,337,3.0,5.0,100,0.00,,,0.00,Rainwise IP-100,2013-05-02 07:56:00,
2013-05-02 04:01:00,42.0,42.0,30.41,NNW,337,0.0,3.0,100,0.00,,,0.00,Rainwise IP-100,2013-05-02 08:01:00,
2013-05-02 04:06:00,42.0,42.0,30.42,NNW,337,0.0,3.0,100,0.00,,,0.00,Rainwise IP-100,2013-05-02 08:06:00,
2013-05-02 04:11:00,41.0,41.0,30.42,NNW,337,0.0,0.0,100,0.00,,,0.00,Rainwise IP-100,2013-05-02 08:11:00,
2013-05-02 04:16:00,39.0,39.0,30.43,NNW,337,0.0,0.0,100,0.00,,,0.00,Rainwise IP-100,2013-05-02 08:16:00,
2013-05-02 04:21:00,39.0,39.0,30.43,NNW,337,0.0,0.0,100,0.00,,,0.00,Rainwise IP-100,2013-05-02 08:21:00,
2013-05-02 04:26:00,39.0,39.0,30.44,NNW,337,0.0,0.0,100,0.00,,,0.00,Rainwise IP-100,2013-05-02 08:26:00,
2013-05-02 04:31:00,39.0,39.0,30.44,NNW,337,0.0,0.0,100,0.00,,,0.00,Rainwise IP-100,2013-05-02 08:31:00,
2013-05-02 04:36:00,39.0,39.0,30.43,NNW,337,0.0,0.0,100,0.00,,,0.00,Rainwise IP-100,2013-05-02 08:36:00,
2013-05-02 04:41:00,39.0,39.0,30.43,NNW,337,0.0,0.0,100,0.00,,,0.00,Rainwise IP-100,2013-05-02 08:41:00,
2013-05-02 04:46:00,38.0,38.0,30.43,NNW,337,0.0,0.0,100,0.00,,,0.00,Rainwise IP-100,2013-05-02 08:46:00,
2013-05-02 04:51:00,38.0,38.0,30.43,NNW,337,0.0,0.0,100,0.00,,,0.00,Rainwise IP-100,2013-05-02 08:51:00,
2013-05-02 04:56:00,38.0,38.0,30.44,NNW,337,0.0,0.0,100,0.00,,,0.00,Rainwise IP-100,2013-05-02 08:56:00,
2013-05-02 05:01:00,38.0,38.0,30.44,NNW,337,0.0,0.0,100,0.00,,,0.00,Rainwise IP-100,2013-05-02 09:01:00,
2013-05-02 05:06:00,38.0,38.0,30.44,NNW,337,0.0,0.0,100,0.00,,,0.00,Rainwise IP-100,2013-05-02 09:06:00,
2013-05-02 05:11:00,38.0,38.0,30.44,NNW,337,0.0,0.0,100,0.00,,,0.00,Rainwise IP-100,2013-05-02 09:11:00,
2013-05-02 05:16:00,38.0,38.0,30.45,NNW,337,0.0,1.0,100,0.00,,,0.00,Rainwise IP-100,2013-05-02 09:16:00,
2013-05-02 05:21:00,38.0,38.0,30.45,NNW,337,0.0,0.0,100,0.00,,,0.00,Rainwise IP-100,2013-05-02 09:21:00,
2013-05-02 05:26:00,38.0,38.0,30.45,NNW,337,0.0,0.0,100,0.00,,,0.00,Rainwise IP-100,2013-05-02 09:26:00,
2013-05-02 05:31:00,38.0,38.0,30.45,NNW,337,0.0,0.0,100,0.00,,,0.00,Rainwise IP-100,2013-05-02 09:31:00,
2013-05-02 05:36:00,38.0,38.0,30.44,NNW,337,0.0,0.0,100,0.00,,,0.00,Rainwise IP-100,2013-05-02 09:36:00,
2013-05-02 05:41:00,38.0,38.0,30.44,NNW,337,0.0,0.0,100,0.00,,,0.00,Rainwise IP-100,2013-05-02 09:41:00,
2013-05-02 05:46:00,38.0,38.0,30.45,NNW,337,0.0,0.0,100,0.00,,,0.00,Rainwise IP-100,2013-05-02 09:46:00,
2013-05-02 05:50:00,38.0,38.0,30.45,NNW,337,0.0,0.0,100,0.00,,,0.00,Rainwise IP-100,2013-05-02 09:50:00,
2013-05-02 05:55:00,38.0,38.0,30.45,NNW,337,0.0,0.0,100,0.00,,,0.00,Rainwise IP-100,2013-05-02 09:55:00,
2013-05-02 06:00:00,37.0,37.0,30.45,NNW,337,0.0,0.0,100,0.00,,,0.00,Rainwise IP-100,2013-05-02 10:00:00,
2013-05-02 06:05:00,39.0,39.0,30.45,NNW,337,0.0,0.0,100,0.00,,,0.00,Rainwise IP-100,2013-05-02 10:05:00,
2013-05-02 06:10:00,40.0,40.0,30.45,NNW,337,0.0,0.0,100,0.00,,,0.00,Rainwise IP-100,2013-05-02 10:10:00,
2013-05-02 06:15:00,41.0,41.0,30.43,NNW,337,0.0,0.0,100,0.00,,,0.00,Rainwise IP-100,2013-05-02 10:15:00,
2013-05-02 06:20:00,39.0,39.0,30.43,NNW,337,0.0,0.0,100,0.00,,,0.00,Rainwise IP-100,2013-05-02 10:20:00,
2013-05-02 06:25:00,39.0,39.0,30.45,NNW,337,0.0,0.0,100,0.00,,,0.00,Rainwise IP-100,2013-05-02 10:25:00,
2013-05-02 06:30:00,39.0,39.0,30.45,NNW,337,0.0,0.0,100,0.00,,,0.00,Rainwise IP-100,2013-05-02 10:30:00,
2013-05-02 06:35:00,39.0,39.0,30.45,NNW,337,0.0,0.0,100,0.00,,,0.00,Rainwise IP-100,2013-05-02 10:35:00,
2013-05-02 06:40:00,39.0,39.0,30.45,NNW,337,0.0,0.0,100,0.00,,,0.00,Rainwise IP-100,2013-05-02 10:40:00,
2013-05-02 06:45:00,40.0,40.0,30.45,NNW,337,0.0,0.0,100,0.00,,,0.00,Rainwise IP-100,2013-05-02 10:45:00,
2013-05-02 06:50:00,40.0,40.0,30.45,NNW,337,0.0,0.0,100,0.00,,,0.00,Rainwise IP-100,2013-05-02 10:50:00,
2013-05-02 06:55:00,40.0,40.0,30.45,NNW,337,0.0,0.0,100,0.00,,,0.00,Rainwise IP-100,2013-05-02 10:55:00,
2013-05-02 07:00:00,41.0,41.0,30.45,NNW,337,0.0,0.0,100,0.00,,,0.00,Rainwise IP-100,2013-05-02 11:00:00,
2013-05-02 07:05:00,42.0,42.0,30.44,NNW,337,0.0,0.0,100,0.00,,,0.00,Rainwise IP-100,2013-05-02 11:05:00,
2013-05-02 07:10:00,43.0,43.0,30.44,NNW,337,0.0,0.0,100,0.00,,,0.00,Rainwise IP-100,2013-05-02 11:10:00,
2013-05-02 07:15:00,44.0,44.0,30.44,NW,315,0.0,0.0,100,0.00,,,0.00,Rainwise IP-100,2013-05-02 11:15:00,
2013-05-02 07:20:00,44.0,44.0,30.43,West,270,0.0,2.0,100,0.00,,,0.00,Rainwise IP-100,2013-05-02 11:20:00,
2013-05-02 07:25:00,45.0,45.0,30.42,West,270,0.0,1.0,100,0.00,,,0.00,Rainwise IP-100,2013-05-02 11:25:00,
2013-05-02 07:30:00,46.0,46.0,30.42,West,270,0.0,0.0,100,0.00,,,0.00,Rainwise IP-100,2013-05-02 11:30:00,
2013-05-02 07:35:00,48.0,48.0,30.41,West,270,0.0,0.0,100,0.00,,,0.00,Rainwise IP-100,2013-05-02 11:35:00,
2013-05-02 07:40:00,49.0,49.0,30.41,West,270,0.0,1.0,100,0.00,,,0.00,Rainwise IP-100,2013-05-02 11:40:00,
2013-05-02 07:45:00,50.0,50.0,30.41,West,270,0.0,0.0,100,0.00,,,0.00,Rainwise IP-100,2013-05-02 11:45:00,
2013-05-02 07:50:00,50.0,50.0,30.41,West,270,0.0,1.0,100,0.00,,,0.00,Rainwise IP-100,2013-05-02 11:50:00,
2013-05-02 07:55:00,51.0,51.0,30.41,West,270,0.0,0.0,100,0.00,,,0.00,Rainwise IP-100,2013-05-02 11:55:00,
2013-05-02 08:00:00,52.0,52.0,30.41,West,270,0.0,1.0,100,0.00,,,0.00,Rainwise IP-100,2013-05-02 12:00:00,
2013-05-02 08:05:00,52.0,52.0,30.41,North,360,2.0,4.0,100,0.00,,,0.00,Rainwise IP-100,2013-05-02 12:05:00,
2013-05-02 08:10:00,52.0,52.0,30.41,NE,45,0.0,4.0,100,0.00,,,0.00,Rainwise IP-100,2013-05-02 12:10:00,
2013-05-02 08:15:00,53.0,53.0,30.41,NNW,337,6.0,6.0,99,0.00,,,0.00,Rainwise IP-100,2013-05-02 12:15:00,
2013-05-02 08:20:00,53.0,53.0,30.41,North,360,2.0,6.0,100,0.00,,,0.00,Rainwise IP-100,2013-05-02 12:20:00,
2013-05-02 08:25:00,55.0,55.0,30.40,North,360,4.0,4.0,99,0.00,,,0.00,Rainwise IP-100,2013-05-02 12:25:00,
2013-05-02 08:30:00,55.0,54.0,30.40,NNE,22,4.0,5.0,96,0.00,,,0.00,Rainwise IP-100,2013-05-02 12:30:00,
2013-05-02 08:35:00,55.0,53.5,30.41,NE,45,4.0,6.0,93,0.00,,,0.00,Rainwise IP-100,2013-05-02 12:35:00,
2013-05-02 08:40:00,56.0,53.5,30.41,North,360,2.0,6.0,92,0.00,,,0.00,Rainwise IP-100,2013-05-02 12:40:00,
2013-05-02 08:45:00,56.0,53.0,30.41,East,90,3.0,6.0,89,0.00,,,0.00,Rainwise IP-100,2013-05-02 12:45:00,
2013-05-02 08:50:00,57.0,53.5,30.41,North,360,3.0,6.0,88,0.00,,,0.00,Rainwise IP-100,2013-05-02 12:50:00,
2013-05-02 08:55:00,58.0,53.5,30.40,SE,135,1.0,6.0,84,0.00,,,0.00,Rainwise IP-100,2013-05-02 12:55:00,
2013-05-02 09:00:00,57.0,51.0,30.40,East,90,4.0,7.0,80,0.00,,,0.00,Rainwise IP-100,2013-05-02 13:00:00,
2013-05-02 09:05:00,58.0,53.0,30.40,East,90,3.0,7.0,81,0.00,,,0.00,Rainwise IP-100,2013-05-02 13:05:00,
2013-05-02 09:10:00,58.0,52.0,30.40,SE,135,2.0,7.0,79,0.00,,,0.00,Rainwise IP-100,2013-05-02 13:10:00,
2013-05-02 09:15:00,58.0,51.0,30.40,East,90,4.0,7.0,78,0.00,,,0.00,Rainwise IP-100,2013-05-02 13:15:00,
2013-05-02 09:20:00,57.0,50.5,30.40,NNE,22,1.0,8.0,79,0.00,,,0.00,Rainwise IP-100,2013-05-02 13:20:00,
2013-05-02 09:25:00,57.0,50.5,30.41,NE,45,4.0,8.0,79,0.00,,,0.00,Rainwise IP-100,2013-05-02 13:25:00,
2013-05-02 09:30:00,59.0,53.0,30.41,North,360,6.0,6.0,79,0.00,,,0.00,Rainwise IP-100,2013-05-02 13:30:00,
2013-05-02 09:35:00,59.0,50.0,30.41,East,90,7.0,7.0,71,0.00,,,0.00,Rainwise IP-100,2013-05-02 13:35:00,
2013-05-02 09:40:00,58.0,50.5,30.41,East,90,4.0,11.0,76,0.00,,,0.00,Rainwise IP-100,2013-05-02 13:40:00,
2013-05-02 09:45:00,60.0,51.0,30.40,NW,315,0.0,7.0,73,0.00,,,0.00,Rainwise IP-100,2013-05-02 13:45:00,
2013-05-02 09:50:00,61.0,52.0,30.40,NW,315,5.0,8.0,72,0.00,,,0.00,Rainwise IP-100,2013-05-02 13:50:00,
2013-05-02 09:55:00,59.0,47.5,30.41,East,90,8.0,10.0,66,0.00,,,0.00,Rainwise IP-100,2013-05-02 13:55:00,
2013-05-02 10:00:00,61.0,50.0,30.41,North,360,1.0,8.0,66,0.00,,,0.00,Rainwise IP-100,2013-05-02 14:00:00,
2013-05-02 10:05:00,62.0,49.0,30.39,ENE,67,2.0,6.0,63,0.00,,,0.00,Rainwise IP-100,2013-05-02 14:05:00,
2013-05-02 10:10:00,60.0,47.5,30.39,East,90,9.0,9.0,64,0.00,,,0.00,Rainwise IP-100,2013-05-02 14:10:00,
2013-05-02 10:15:00,61.0,50.0,30.40,East,90,4.0,12.0,67,0.00,,,0.00,Rainwise IP-100,2013-05-02 14:15:00,
2013-05-02 10:20:00,61.0,50.0,30.40,East,90,1.0,9.0,66,0.00,,,0.00,Rainwise IP-100,2013-05-02 14:20:00,
2013-05-02 10:25:00,62.0,50.0,30.39,NNE,22,1.0,6.0,64,0.00,,,0.00,Rainwise IP-100,2013-05-02 14:25:00,
2013-05-02 10:30:00,63.0,50.0,30.39,NNE,22,0.0,8.0,62,0.00,,,0.00,Rainwise IP-100,2013-05-02 14:30:00,
2013-05-02 10:35:00,63.0,47.5,30.39,North,360,1.0,8.0,57,0.00,,,0.00,Rainwise IP-100,2013-05-02 14:35:00,
2013-05-02 10:40:00,64.0,50.0,30.39,North,360,5.0,5.0,60,0.00,,,0.00,Rainwise IP-100,2013-05-02 14:40:00,
2013-05-02 10:45:00,65.0,49.0,30.39,South,180,3.0,8.0,57,0.00,,,0.00,Rainwise IP-100,2013-05-02 14:45:00,
2013-05-02 10:50:00,64.0,47.5,30.38,North,360,6.0,9.0,55,0.00,,,0.00,Rainwise IP-100,2013-05-02 14:50:00,
2013-05-02 10:55:00,63.0,48.0,30.38,NE,45,3.0,10.0,59,0.00,,,0.00,Rainwise IP-100,2013-05-02 14:55:00,
2013-05-02 11:00:00,63.0,48.0,30.39,North,360,7.0,9.0,59,0.00,,,0.00,Rainwise IP-100,2013-05-02 15:00:00,
2013-05-02 11:05:00,63.0,47.0,30.39,North,360,4.0,8.0,56,0.00,,,0.00,Rainwise IP-100,2013-05-02 15:05:00,
2013-05-02 11:10:00,65.0,47.0,30.38,South,180,1.0,6.0,52,0.00,,,0.00,Rainwise IP-100,2013-05-02 15:10:00,
2013-05-02 11:15:00,64.0,45.0,30.38,NNE,22,6.0,9.0,50,0.00,,,0.00,Rainwise IP-100,2013-05-02 15:15:00,
2013-05-02 11:20:00,64.0,44.0,30.37,East,90,5.0,10.0,49,0.00,,,0.00,Rainwise IP-100,2013-05-02 15:20:00,
2013-05-02 11:25:00,65.0,47.0,30.37,NE,45,4.0,9.0,52,0.00,,,0.00,Rainwise IP-100,2013-05-02 15:25:00,
2013-05-02 11:30:00,66.0,46.0,30.37,West,270,1.0,8.0,49,0.00,,,0.00,Rainwise IP-100,2013-05-02 15:30:00,
2013-05-02 11:35:00,67.0,46.0,30.37,NE,45,8.0,10.0,47,0.00,,,0.00,Rainwise IP-100,2013-05-02 15:35:00,
2013-05-02 11:40:00,66.0,44.0,30.37,NNE,22,5.0,10.0,46,0.00,,,0.00,Rainwise IP-100,2013-05-02 15:40:00,
2013-05-02 11:45:00,66.0,46.0,30.37,NNE,22,7.0,10.0,48,0.00,,,0.00,Rainwise IP-100,2013-05-02 15:45:00,
2013-05-02 11:50:00,66.0,44.0,30.37,SSE,157,0.0,8.0,45,0.00,,,0.00,Rainwise IP-100,2013-05-02 15:50:00,
2013-05-02 11:55:00,67.0,44.0,30.37,NNE,22,2.0,8.0,43,0.00,,,0.00,Rainwise IP-100,2013-05-02 15:55:00,
2013-05-02 12:00:00,67.0,44.0,30.35,East,90,1.0,10.0,44,0.00,,,0.00,Rainwise IP-100,2013-05-02 16:00:00,
2013-05-02 12:05:00,68.0,45.0,30.35,North,360,7.0,8.0,43,0.00,,,0.00,Rainwise IP-100,2013-05-02 16:05:00,
2013-05-02 12:10:00,67.0,44.0,30.35,SE,135,0.0,11.0,43,0.00,,,0.00,Rainwise IP-100,2013-05-02 16:10:00,
2013-05-02 12:15:00,67.0,43.0,30.35,SE,135,6.0,10.0,42,0.00,,,0.00,Rainwise IP-100,2013-05-02 16:15:00,
2013-05-02 12:20:00,68.0,43.0,30.35,ESE,112,4.0,8.0,41,0.00,,,0.00,Rainwise IP-100,2013-05-02 16:20:00,
2013-05-02 12:25:00,68.0,46.0,30.35,ESE,112,2.0,12.0,45,0.00,,,0.00,Rainwise IP-100,2013-05-02 16:25:00,
2013-05-02 12:30:00,67.0,43.0,30.35,East,90,3.0,11.0,42,0.00,,,0.00,Rainwise IP-100,2013-05-02 16:30:00,
2013-05-02 12:35:00,68.0,43.0,30.35,South,180,4.0,6.0,41,0.00,,,0.00,Rainwise IP-100,2013-05-02 16:35:00,
2013-05-02 12:40:00,68.0,43.0,30.33,ENE,67,1.0,10.0,41,0.00,,,0.00,Rainwise IP-100,2013-05-02 16:40:00,
2013-05-02 12:45:00,67.0,43.0,30.33,East,90,3.0,11.0,42,0.00,,,0.00,Rainwise IP-100,2013-05-02 16:45:00,
2013-05-02 12:50:00,68.0,44.0,30.34,East,90,5.0,9.0,42,0.00,,,0.00,Rainwise IP-100,2013-05-02 16:50:00,
2013-05-02 12:55:00,67.0,41.0,30.34,South,180,6.0,9.0,39,0.00,,,0.00,Rainwise IP-100,2013-05-02 16:55:00,
2013-05-02 13:00:00,68.0,43.0,30.34,East,90,2.0,7.0,40,0.00,,,0.00,Rainwise IP-100,2013-05-02 17:00:00,
2013-05-02 13:05:00,68.0,42.0,30.34,North,360,6.0,11.0,39,0.00,,,0.00,Rainwise IP-100,2013-05-02 17:05:00,
2013-05-02 13:10:00,68.0,41.0,30.34,East,90,9.0,10.0,38,0.00,,,0.00,Rainwise IP-100,2013-05-02 17:10:00,
2013-05-02 13:15:00,67.0,41.0,30.34,SE,135,6.0,12.0,39,0.00,,,0.00,Rainwise IP-100,2013-05-02 17:15:00,
2013-05-02 13:20:00,69.0,43.0,30.34,North,360,4.0,8.0,39,0.00,,,0.00,Rainwise IP-100,2013-05-02 17:20:00,
2013-05-02 13:25:00,69.0,42.0,30.34,East,90,10.0,10.0,38,0.00,,,0.00,Rainwise IP-100,2013-05-02 17:25:00,
2013-05-02 13:30:00,68.0,40.0,30.32,East,90,8.0,11.0,36,0.00,,,0.00,Rainwise IP-100,2013-05-02 17:30:00,
2013-05-02 13:35:00,68.0,41.0,30.32,SE,135,7.0,10.0,38,0.00,,,0.00,Rainwise IP-100,2013-05-02 17:35:00,
2013-05-02 13:40:00,69.0,41.0,30.33,NE,45,3.0,9.0,37,0.00,,,0.00,Rainwise IP-100,2013-05-02 17:40:00,
2013-05-02 13:45:00,69.0,40.0,30.33,ENE,67,0.0,8.0,35,0.00,,,0.00,Rainwise IP-100,2013-05-02 17:45:00,
2013-05-02 13:50:00,70.0,39.0,30.31,SE,135,4.0,7.0,33,0.00,,,0.00,Rainwise IP-100,2013-05-02 17:50:00,
2013-05-02 13:53:00,71.0,43.0,30.31,North,360,4.0,9.0,37,0.00,,,0.00,Rainwise IP-100,2013-05-02 17:53:00,
2013-05-02 13:58:00,71.0,41.0,30.31,South,180,2.0,9.0,34,0.00,,,0.00,Rainwise IP-100,2013-05-02 17:58:00,
2013-05-02 14:03:00,71.0,39.0,30.31,East,90,9.0,9.0,31,0.00,,,0.00,Rainwise IP-100,2013-05-02 18:03:00,
2013-05-02 14:08:00,70.0,39.0,30.31,NNE,22,4.0,12.0,32,0.00,,,0.00,Rainwise IP-100,2013-05-02 18:08:00,
2013-05-02 14:13:00,70.0,38.0,30.31,East,90,6.0,9.0,31,0.00,,,0.00,Rainwise IP-100,2013-05-02 18:13:00,
2013-05-02 14:18:00,70.0,39.0,30.31,East,90,6.0,9.0,33,0.00,,,0.00,Rainwise IP-100,2013-05-02 18:18:00,
2013-05-02 14:23:00,70.0,39.0,30.31,NE,45,7.0,9.0,32,0.00,,,0.00,Rainwise IP-100,2013-05-02 18:23:00,
2013-05-02 14:28:00,72.0,40.0,30.30,SE,135,1.0,8.0,32,0.00,,,0.00,Rainwise IP-100,2013-05-02 18:28:00,
2013-05-02 14:33:00,70.0,39.0,30.30,East,90,4.0,12.0,32,0.00,,,0.00,Rainwise IP-100,2013-05-02 18:33:00,
2013-05-02 14:38:00,71.0,39.0,30.31,NE,45,4.0,7.0,32,0.00,,,0.00,Rainwise IP-100,2013-05-02 18:38:00,
2013-05-02 14:43:00,72.0,39.0,30.31,NW,315,0.0,7.0,31,0.00,,,0.00,Rainwise IP-100,2013-05-02 18:43:00,
2013-05-02 14:48:00,72.0,39.0,30.29,ESE,112,6.0,8.0,30,0.00,,,0.00,Rainwise IP-100,2013-05-02 18:48:00,
2013-05-02 14:53:00,74.0,42.0,30.29,NE,45,15.0,15.0,32,0.00,,,0.00,Rainwise IP-100,2013-05-02 18:53:00,
2013-05-02 14:58:00,74.0,40.0,30.28,East,90,1.0,15.0,29,0.00,,,0.00,Rainwise IP-100,2013-05-02 18:58:00,
2013-05-02 15:03:00,75.0,41.0,30.28,East,90,1.0,6.0,29,0.00,,,0.00,Rainwise IP-100,2013-05-02 19:03:00,
2013-05-02 15:08:00,75.0,41.0,30.28,ENE,67,1.0,7.0,30,0.00,,,0.00,Rainwise IP-100,2013-05-02 19:08:00,
2013-05-02 15:13:00,73.0,41.0,30.28,East,90,1.0,13.0,32,0.00,,,0.00,Rainwise IP-100,2013-05-02 19:13:00,
2013-05-02 15:18:00,73.0,43.0,30.28,South,180,4.0,11.0,34,0.00,,,0.00,Rainwise IP-100,2013-05-02 19:18:00,
2013-05-02 15:23:00,73.0,41.0,30.28,North,360,4.0,9.0,32,0.00,,,0.00,Rainwise IP-100,2013-05-02 19:23:00,
2013-05-02 15:28:00,73.0,41.0,30.27,East,90,6.0,10.0,32,0.00,,,0.00,Rainwise IP-100,2013-05-02 19:28:00,
2013-05-02 15:33:00,73.0,43.0,30.27,SE,135,0.0,9.0,34,0.00,,,0.00,Rainwise IP-100,2013-05-02 19:33:00,
2013-05-02 15:38:00,73.0,41.0,30.27,NW,315,6.0,12.0,32,0.00,,,0.00,Rainwise IP-100,2013-05-02 19:38:00,
2013-05-02 15:43:00,73.0,41.0,30.27,SE,135,1.0,9.0,32,0.00,,,0.00,Rainwise IP-100,2013-05-02 19:43:00,
2013-05-02 15:48:00,74.0,41.0,30.27,NE,45,0.0,6.0,31,0.00,,,0.00,Rainwise IP-100,2013-05-02 19:48:00,
2013-05-02 15:53:00,74.0,41.0,30.27,North,360,6.0,10.0,30,0.00,,,0.00,Rainwise IP-100,2013-05-02 19:53:00,
2013-05-02 15:58:00,73.0,40.0,30.26,East,90,6.0,9.0,30,0.00,,,0.00,Rainwise IP-100,2013-05-02 19:58:00,
2013-05-02 16:03:00,72.0,39.0,30.26,ESE,112,1.0,9.0,31,0.00,,,0.00,Rainwise IP-100,2013-05-02 20:03:00,
2013-05-02 16:08:00,72.0,39.0,30.27,ENE,67,6.0,9.0,31,0.00,,,0.00,Rainwise IP-100,2013-05-02 20:08:00,
2013-05-02 16:13:00,73.0,40.0,30.27,South,180,5.0,7.0,30,0.00,,,0.00,Rainwise IP-100,2013-05-02 20:13:00,
2013-05-02 16:18:00,74.0,40.0,30.26,West,270,3.0,10.0,29,0.00,,,0.00,Rainwise IP-100,2013-05-02 20:18:00,
2013-05-02 16:23:00,75.0,41.0,30.26,South,180,4.0,8.0,29,0.00,,,0.00,Rainwise IP-100,2013-05-02 20:23:00,
2013-05-02 16:28:00,75.0,41.0,30.25,ESE,112,2.0,7.0,29,0.00,,,0.00,Rainwise IP-100,2013-05-02 20:28:00,
2013-05-02 16:33:00,76.0,39.0,30.25,East,90,0.0,7.0,27,0.00,,,0.00,Rainwise IP-100,2013-05-02 20:33:00,
2013-05-02 16:38:00,75.0,39.0,30.25,SSE,157,1.0,8.0,27,0.00,,,0.00,Rainwise IP-100,2013-05-02 20:38:00,
2013-05-02 16:43:00,75.0,41.0,30.25,SSE,157,0.0,7.0,29,0.00,,,0.00,Rainwise IP-100,2013-05-02 20:43:00,
2013-05-02 16:48:00,76.0,39.0,30.24,South,180,6.0,9.0,27,0.00,,,0.00,Rainwise IP-100,2013-05-02 20:48:00,
2013-05-02 16:53:00,75.0,39.0,30.24,SSE,157,7.0,8.0,27,0.00,,,0.00,Rainwise IP-100,2013-05-02 20:53:00,
2013-05-02 16:58:00,74.0,38.0,30.25,SE,135,4.0,9.0,27,0.00,,,0.00,Rainwise IP-100,2013-05-02 20:58:00,
2013-05-02 17:03:00,73.0,39.0,30.25,SE,135,1.0,10.0,29,0.00,,,0.00,Rainwise IP-100,2013-05-02 21:03:00,
2013-05-02 17:08:00,73.0,38.0,30.25,SE,135,1.0,8.0,28,0.00,,,0.00,Rainwise IP-100,2013-05-02 21:08:00,
2013-05-02 17:13:00,74.0,38.0,30.25,South,180,1.0,5.0,27,0.00,,,0.00,Rainwise IP-100,2013-05-02 21:13:00,
2013-05-02 17:18:00,75.0,39.0,30.24,South,180,5.0,7.0,27,0.00,,,0.00,Rainwise IP-100,2013-05-02 21:18:00,
2013-05-02 17:23:00,75.0,38.0,30.24,South,180,4.0,7.0,26,0.00,,,0.00,Rainwise IP-100,2013-05-02 21:23:00,
2013-05-02 17:28:00,74.0,38.0,30.25,South,180,2.0,9.0,27,0.00,,,0.00,Rainwise IP-100,2013-05-02 21:28:00,
2013-05-02 17:33:00,74.0,38.0,30.25,South,180,2.0,9.0,27,0.00,,,0.00,Rainwise IP-100,2013-05-02 21:33:00,
2013-05-02 17:38:00,73.0,38.0,30.25,SE,135,3.0,10.0,28,0.00,,,0.00,Rainwise IP-100,2013-05-02 21:38:00,
2013-05-02 17:43:00,73.0,39.0,30.25,South,180,1.0,8.0,29,0.00,,,0.00,Rainwise IP-100,2013-05-02 21:43:00,
2013-05-02 17:48:00,75.0,39.0,30.24,East,90,0.0,3.0,27,0.00,,,0.00,Rainwise IP-100,2013-05-02 21:48:00,
2013-05-02 17:53:00,75.0,39.0,30.24,South,180,3.0,6.0,27,0.00,,,0.00,Rainwise IP-100,2013-05-02 21:53:00,
2013-05-02 17:58:00,74.0,40.0,30.25,South,180,2.0,10.0,29,0.00,,,0.00,Rainwise IP-100,2013-05-02 21:58:00,
2013-05-02 18:03:00,74.0,40.0,30.25,West,270,2.0,7.0,29,0.00,,,0.00,Rainwise IP-100,2013-05-02 22:03:00,
2013-05-02 18:08:00,72.0,38.0,30.25,ESE,112,4.0,9.0,29,0.00,,,0.00,Rainwise IP-100,2013-05-02 22:08:00,
2013-05-02 18:13:00,71.0,38.0,30.25,ENE,67,1.0,10.0,30,0.00,,,0.00,Rainwise IP-100,2013-05-02 22:13:00,
2013-05-02 18:18:00,71.0,38.0,30.25,SE,135,6.0,8.0,30,0.00,,,0.00,Rainwise IP-100,2013-05-02 22:18:00,
2013-05-02 18:23:00,70.0,38.0,30.25,SE,135,6.0,7.0,31,0.00,,,0.00,Rainwise IP-100,2013-05-02 22:23:00,
2013-05-02 18:28:00,70.0,39.0,30.25,South,180,1.0,7.0,32,0.00,,,0.00,Rainwise IP-100,2013-05-02 22:28:00,
2013-05-02 18:33:00,70.0,39.0,30.25,North,360,1.0,7.0,32,0.00,,,0.00,Rainwise IP-100,2013-05-02 22:33:00,
2013-05-02 18:38:00,69.0,38.0,30.25,ESE,112,2.0,9.0,32,0.00,,,0.00,Rainwise IP-100,2013-05-02 22:38:00,
2013-05-02 18:43:00,69.0,39.0,30.25,SE,135,4.0,9.0,34,0.00,,,0.00,Rainwise IP-100,2013-05-02 22:43:00,
2013-05-02 18:48:00,69.0,39.0,30.25,South,180,3.0,7.0,34,0.00,,,0.00,Rainwise IP-100,2013-05-02 22:48:00,
2013-05-02 18:53:00,69.0,39.0,30.25,SSE,157,1.0,8.0,34,0.00,,,0.00,Rainwise IP-100,2013-05-02 22:53:00,
2013-05-02 18:58:00,68.0,40.0,30.25,SE,135,8.0,8.0,36,0.00,,,0.00,Rainwise IP-100,2013-05-02 22:58:00,
2013-05-02 19:03:00,68.0,38.0,30.25,South,180,2.0,9.0,34,0.00,,,0.00,Rainwise IP-100,2013-05-02 23:03:00,
2013-05-02 19:08:00,68.0,38.0,30.25,SE,135,4.0,7.0,34,0.00,,,0.00,Rainwise IP-100,2013-05-02 23:08:00,
2013-05-02 19:13:00,67.0,38.0,30.25,South,180,1.0,6.0,35,0.00,,,0.00,Rainwise IP-100,2013-05-02 23:13:00,
2013-05-02 19:18:00,67.0,39.0,30.26,SSE,157,1.0,5.0,36,0.00,,,0.00,Rainwise IP-100,2013-05-02 23:18:00,
2013-05-02 19:23:00,67.0,38.0,30.26,SE,135,2.0,4.0,35,0.00,,,0.00,Rainwise IP-100,2013-05-02 23:23:00,
2013-05-02 19:28:00,66.0,37.0,30.25,SSE,157,3.0,5.0,35,0.00,,,0.00,Rainwise IP-100,2013-05-02 23:28:00,
2013-05-02 19:33:00,66.0,38.0,30.25,South,180,0.0,4.0,36,0.00,,,0.00,Rainwise IP-100,2013-05-02 23:33:00,
2013-05-02 19:38:00,66.0,39.0,30.25,South,180,3.0,4.0,37,0.00,,,0.00,Rainwise IP-100,2013-05-02 23:38:00,
2013-05-02 19:43:00,65.0,39.0,30.25,South,180,1.0,4.0,39,0.00,,,0.00,Rainwise IP-100,2013-05-02 23:43:00,
2013-05-02 19:48:00,65.0,39.0,30.25,South,180,0.0,4.0,39,0.00,,,0.00,Rainwise IP-100,2013-05-02 23:48:00,
2013-05-02 19:53:00,64.0,39.0,30.25,South,180,1.0,5.0,40,0.00,,,0.00,Rainwise IP-100,2013-05-02 23:53:00,
2013-05-02 19:58:00,64.0,40.0,30.26,South,180,0.0,2.0,41,0.00,,,0.00,Rainwise IP-100,2013-05-02 23:58:00,
2013-05-02 20:03:00,64.0,40.0,30.26,South,180,0.0,4.0,41,0.00,,,0.00,Rainwise IP-100,2013-05-03 00:03:00,
2013-05-02 20:08:00,63.0,39.0,30.26,South,180,0.0,3.0,42,0.00,,,0.00,Rainwise IP-100,2013-05-03 00:08:00,
2013-05-02 20:13:00,63.0,41.0,30.26,South,180,1.0,2.0,44,0.00,,,0.00,Rainwise IP-100,2013-05-03 00:13:00,
2013-05-02 20:18:00,62.0,40.0,30.27,South,180,0.0,2.0,44,0.00,,,0.00,Rainwise IP-100,2013-05-03 00:18:00,
2013-05-02 20:23:00,62.0,40.0,30.27,South,180,1.0,2.0,45,0.00,,,0.00,Rainwise IP-100,2013-05-03 00:23:00,
2013-05-02 20:28:00,61.0,40.0,30.27,South,180,0.0,2.0,46,0.00,,,0.00,Rainwise IP-100,2013-05-03 00:28:00,
2013-05-02 20:33:00,61.0,40.0,30.27,South,180,1.0,2.0,47,0.00,,,0.00,Rainwise IP-100,2013-05-03 00:33:00,
2013-05-02 20:38:00,61.0,41.0,30.27,South,180,1.0,3.0,48,0.00,,,0.00,Rainwise IP-100,2013-05-03 00:38:00,
2013-05-02 20:43:00,60.0,40.0,30.27,South,180,1.0,3.0,49,0.00,,,0.00,Rainwise IP-100,2013-05-03 00:43:00,
2013-05-02 20:48:00,60.0,41.0,30.28,South,180,2.0,3.0,50,0.00,,,0.00,Rainwise IP-100,2013-05-03 00:48:00,
2013-05-02 20:53:00,60.0,41.0,30.28,South,180,0.0,2.0,50,0.00,,,0.00,Rainwise IP-100,2013-05-03 00:53:00,
2013-05-02 20:58:00,60.0,42.0,30.28,South,180,1.0,2.0,51,0.00,,,0.00,Rainwise IP-100,2013-05-03 00:58:00,
2013-05-02 21:03:00,59.0,42.0,30.28,South,180,0.0,2.0,53,0.00,,,0.00,Rainwise IP-100,2013-05-03 01:03:00,
2013-05-02 21:08:00,59.0,41.0,30.28,SE,135,1.0,4.0,51,0.00,,,0.00,Rainwise IP-100,2013-05-03 01:08:00,
2013-05-02 21:13:00,59.0,41.0,30.28,South,180,1.0,4.0,51,0.00,,,0.00,Rainwise IP-100,2013-05-03 01:13:00,
2013-05-02 21:18:00,59.0,41.0,30.29,South,180,2.0,4.0,51,0.00,,,0.00,Rainwise IP-100,2013-05-03 01:18:00,
2013-05-02 21:23:00,59.0,41.0,30.29,South,180,0.0,4.0,51,0.00,,,0.00,Rainwise IP-100,2013-05-03 01:23:00,
2013-05-02 21:28:00,59.0,41.0,30.28,SE,135,1.0,4.0,51,0.00,,,0.00,Rainwise IP-100,2013-05-03 01:28:00,
2013-05-02 21:33:00,59.0,42.0,30.28,South,180,1.0,3.0,53,0.00,,,0.00,Rainwise IP-100,2013-05-03 01:33:00,
2013-05-02 21:38:00,58.0,43.0,30.28,South,180,1.0,3.0,57,0.00,,,0.00,Rainwise IP-100,2013-05-03 01:38:00,
2013-05-02 21:43:00,57.0,41.0,30.28,South,180,1.0,2.0,56,0.00,,,0.00,Rainwise IP-100,2013-05-03 01:43:00,
2013-05-02 21:48:00,57.0,42.0,30.28,South,180,1.0,2.0,58,0.00,,,0.00,Rainwise IP-100,2013-05-03 01:48:00,
2013-05-02 21:53:00,57.0,42.0,30.28,South,180,1.0,3.0,58,0.00,,,0.00,Rainwise IP-100,2013-05-03 01:53:00,
2013-05-02 21:58:00,57.0,43.0,30.29,South,180,0.0,2.0,59,0.00,,,0.00,Rainwise IP-100,2013-05-03 01:58:00,
2013-05-02 22:03:00,56.0,44.0,30.29,South,180,0.0,0.0,65,0.00,,,0.00,Rainwise IP-100,2013-05-03 02:03:00,
2013-05-02 22:08:00,56.0,44.0,30.29,South,180,0.0,1.0,64,0.00,,,0.00,Rainwise IP-100,2013-05-03 02:08:00,
2013-05-02 22:13:00,55.0,44.0,30.29,South,180,1.0,2.0,67,0.00,,,0.00,Rainwise IP-100,2013-05-03 02:13:00,
2013-05-02 22:18:00,55.0,45.0,30.29,South,180,1.0,2.0,69,0.00,,,0.00,Rainwise IP-100,2013-05-03 02:18:00,
2013-05-02 22:23:00,55.0,45.0,30.29,South,180,0.0,1.0,68,0.00,,,0.00,Rainwise IP-100,2013-05-03 02:23:00,
2013-05-02 22:28:00,55.0,46.0,30.29,South,180,0.0,0.0,71,0.00,,,0.00,Rainwise IP-100,2013-05-03 02:28:00,
2013-05-02 22:33:00,54.0,44.0,30.29,South,180,0.0,0.0,69,0.00,,,0.00,Rainwise IP-100,2013-05-03 02:33:00,
2013-05-02 22:38:00,54.0,46.0,30.30,South,180,0.0,0.0,73,0.00,,,0.00,Rainwise IP-100,2013-05-03 02:38:00,
2013-05-02 22:43:00,54.0,45.0,30.30,South,180,0.0,1.0,72,0.00,,,0.00,Rainwise IP-100,2013-05-03 02:43:00,
2013-05-02 22:48:00,54.0,45.0,30.30,South,180,0.0,1.0,72,0.00,,,0.00,Rainwise IP-100,2013-05-03 02:48:00,
2013-05-02 22:53:00,54.0,46.0,30.30,South,180,0.0,0.0,73,0.00,,,0.00,Rainwise IP-100,2013-05-03 02:53:00,
2013-05-02 22:58:00,53.0,45.0,30.31,South,180,0.0,2.0,74,0.00,,,0.00,Rainwise IP-100,2013-05-03 02:58:00,
2013-05-02 23:03:00,53.0,44.0,30.31,South,180,0.0,2.0,73,0.00,,,0.00,Rainwise IP-100,2013-05-03 03:03:00,
2013-05-02 23:08:00,53.0,46.0,30.30,South,180,1.0,2.0,78,0.00,,,0.00,Rainwise IP-100,2013-05-03 03:08:00,
2013-05-02 23:13:00,53.0,49.0,30.30,South,180,2.0,2.0,88,0.00,,,0.00,Rainwise IP-100,2013-05-03 03:13:00,
2013-05-02 23:18:00,52.0,49.0,30.30,South,180,1.0,2.0,90,0.00,,,0.00,Rainwise IP-100,2013-05-03 03:18:00,
2013-05-02 23:23:00,52.0,47.5,30.30,South,180,0.0,2.0,85,0.00,,,0.00,Rainwise IP-100,2013-05-03 03:23:00,
2013-05-02 23:28:00,52.0,47.0,30.30,South,180,0.0,2.0,83,0.00,,,0.00,Rainwise IP-100,2013-05-03 03:28:00,
2013-05-02 23:33:00,52.0,47.0,30.30,South,180,0.0,2.0,82,0.00,,,0.00,Rainwise IP-100,2013-05-03 03:33:00,
2013-05-02 23:38:00,52.0,47.0,30.31,South,180,0.0,1.0,83,0.00,,,0.00,Rainwise IP-100,2013-05-03 03:38:00,
2013-05-02 23:43:00,52.0,47.0,30.31,South,180,0.0,0.0,83,0.00,,,0.00,Rainwise IP-100,2013-05-03 03:43:00,
2013-05-02 23:48:00,52.0,47.0,30.31,South,180,0.0,2.0,82,0.00,,,0.00,Rainwise IP-100,2013-05-03 03:48:00,
2013-05-02 23:53:00,52.0,47.5,30.31,South,180,0.0,1.0,84,0.00,,,0.00,Rainwise IP-100,2013-05-03 03:53:00,
2013-05-02 23:58:00,51.0,46.0,30.31,South,180,0.0,1.0,82,0.00,,,0.00,Rainwise IP-100,2013-05-03 03:58:00,